Погода в Ак-Тале

Россия / Республика Тыва     51°10′25″N   93°24′27″E
темп.,
°C
ветер,
м/с
пор.,
м/с
влажн.,
%
обл.,
%
осадки,
мм/ч
давл.,
гПа
погр.,
м
14 мая, пт
пт1401:00+5зюз114066 0.0 101410
04:00+4ююз1145100 0.0 101510
07:00+6ю1143100 0.0 101592
10:00+10св1132100 0.0 1013672
13:00+14ссв3527100 0.0 10122187
16:00+15с132461 0.0 10102715
19:00+14з3334100 0.0 10121201
22:00+8ссз335846 0.0 101649
15 мая, сб
сб1501:00+7сз3568100 0.2 1019167
04:00+7с1180100 0.2 1021126
07:00+7всв1179100 0.6 1023348
10:00+10ссз345679 0.2 10221355
13:00+13ссз45358 0.2 10211976
16:00+15ссз443328 0.0 10191655
19:00+14ссз233528 0.0 10191262
22:00+10ююз00466 0.0 102110
16 мая, вс
вс1601:00+8юз1152100 0.0 102110
04:00+6юз11555 0.0 102010
07:00+10юз114717 0.0 1020102
10:00+15сз02335 0.0 1017995
13:00+19с45267 0.0 10142455
16:00+20зсз562613 0.0 10122323
19:00+18ссз35339 0.0 1012414
22:00+13зюз2244100 0.0 101315
17 мая, пн
пн1701:00+12зюз22545 0.0 101314
04:00+10юз225797 0.0 101218
07:00+13юз2652100 0.0 1012338
10:00+17зсз7104191 0.0 10112031
13:00+19зсз8123810 0.0 10092005
16:00+18з7124282 0.0 10081806
19:00+14ссз6962100 0.3 10101085
22:00+12юз2267100 0.1 101026
18 мая, вт
вт1801:00+10юз2272100 0.3 101028
04:00+9ююз227297 0.0 101016
07:00+12юз37585 0.0 1010663
10:00+16зсз7944100 0.0 10091777
13:00+19зсз6835100 0.0 10052256
16:00+18зсз81141100 0.0 10031626
19:00+15з385487 0.2 10031123
22:00+12ю3461100 0.0 100277